This demonstration page uses our WeatherBlox Daily Observations layout. Learn more.

Left ArrowRight Arrow

53.62937, 11.41316

Hourly Observations for January 8, 2022

Temp ( °F °C ) Dew Point ( °F °C ) Humidity (%) Winds ( mph kmh ) Pressure ( in mb ) Visibility ( mi km ) Precip ( " mm )
12:20 am 00:20 Mostly Cloudy 36 2 34 1 93 93 S 5 7 29.74 1007 30 48 N/A
12:50 am 00:50 Partly Cloudy 34 1 34 1 100 100 S 5 7 29.74 1007 30 48 N/A
1:20 am 01:20 Mostly Clear 34 1 32 0 93 93 VRB 5 7 29.74 1007 30 48 N/A
1:50 am 01:50 Mostly Clear 34 1 32 0 93 93 VRB 5 7 29.74 1007 30 48 N/A
2:20 am 02:20 Mostly Cloudy 34 1 32 0 93 93 VRB 3 6 29.74 1007 30 48 N/A
2:50 am 02:50 Mostly Cloudy 34 1 32 0 93 93 VRB 3 6 29.74 1007 30 48 N/A
3:20 am 03:20 Cloudy 36 2 32 0 87 87 VRB 3 6 29.74 1007 30 48 N/A
3:50 am 03:50 Cloudy 36 2 32 0 87 87 VRB 3 6 29.74 1007 30 48 N/A
4:20 am 04:20 Cloudy 36 2 32 0 87 87 WSW 8 13 29.74 1007 30 48 N/A
4:50 am 04:50 Cloudy 36 2 32 0 87 87 WSW 7 11 29.74 1007 30 48 N/A
5:20 am 05:20 Cloudy 36 2 32 0 87 87 SW 6 9 29.71 1006 30 48 N/A
5:50 am 05:50 Cloudy 36 2 32 0 87 87 VRB 6 9 29.71 1006 30 48 N/A
6:20 am 06:20 Cloudy 36 2 32 0 87 87 SW 5 7 29.74 1007 30 48 N/A
6:50 am 06:50 Cloudy 36 2 32 0 87 87 SSW 3 6 29.74 1007 30 48 N/A
7:20 am 07:20 Cloudy 36 2 32 0 87 87 SW 5 7 29.74 1007 30 48 N/A
7:50 am 07:50 Cloudy 36 2 32 0 87 87 VRB 6 9 29.74 1007 30 48 N/A
8:20 am 08:20 Cloudy 36 2 32 0 87 87 VRB 6 9 29.74 1007 30 48 N/A
8:50 am 08:50 Cloudy 36 2 32 0 87 87 VRB 6 9 29.74 1007 30 48 N/A
9:20 am 09:20 Cloudy 36 2 32 0 87 87 SW 7 11 29.74 1007 30 48 N/A
9:50 am 09:50 Mostly Cloudy with Light Rain 36 2 34 1 93 93 VRB 6 9 29.74 1007 30 48 N/A
10:20 am 10:20 Mostly Cloudy 36 2 34 1 93 93 SW 6 9 29.74 1007 30 48 N/A
10:50 am 10:50 Cloudy 36 2 34 1 93 93 SW 7 11 29.74 1007 30 48 N/A
11:20 am 11:20 Cloudy 37 3 34 1 87 87 WSW 7 11 29.74 1007 30 48 N/A
11:50 am 11:50 Mostly Cloudy 37 3 34 1 87 87 SW 6 9 29.74 1007 30 48 N/A
12:20 pm 12:20 Mostly Cloudy 37 3 34 1 87 87 SW 6 9 29.71 1006 30 48 N/A
12:50 pm 12:50 Partly Cloudy 39 4 34 1 81 81 VRB 6 9 29.71 1006 30 48 N/A
1:20 pm 13:20 Partly Cloudy 39 4 34 1 81 81 VRB 5 7 29.71 1006 30 48 N/A
1:50 pm 13:50 Mostly Sunny 39 4 34 1 81 81 SSW 6 9 29.68 1005 30 48 N/A
2:20 pm 14:20 Mostly Sunny 39 4 34 1 81 81 SSW 6 9 29.68 1005 7 11 N/A
2:50 pm 14:50 Mostly Sunny 39 4 34 1 81 81 S 5 7 29.68 1005 30 48 N/A
3:20 pm 15:20 Mostly Sunny 37 3 34 1 87 87 VRB 6 9 29.65 1004 30 48 N/A
3:50 pm 15:50 Mostly Sunny 37 3 34 1 87 87 S 5 7 29.65 1004 30 48 N/A
4:20 pm 16:20 Partly Cloudy 37 3 34 1 87 87 S 6 9 29.65 1004 30 48 N/A
4:50 pm 16:50 Mostly Clear 37 3 32 0 81 81 S 7 11 29.65 1004 30 48 N/A
5:20 pm 17:20 Partly Cloudy 37 3 32 0 81 81 S 6 9 29.62 1003 30 48 N/A
5:50 pm 17:50 Mostly Cloudy 36 2 32 0 87 87 S 6 9 29.59 1002 30 48 N/A
6:20 pm 18:20 Mostly Clear 37 3 30 -1 75 75 VRB 7 11 29.59 1002 30 48 N/A
6:50 pm 18:50 Mostly Clear 36 2 30 -1 81 81 S 5 7 29.56 1001 7 11 N/A
7:20 pm 19:20 Mostly Clear 36 2 30 -1 81 81 SSE 7 11 29.53 1000 7 11 N/A
8:20 pm 20:20 Mostly Clear 36 2 30 -1 81 81 SSE 8 13 29.50 999 30 48 N/A
8:50 pm 20:50 Mostly Clear 36 2 30 -1 81 81 SSE 9 15 29.47 998 30 48 N/A
9:20 pm 21:20 Mostly Clear 36 2 28 -2 75 75 SSE 8 13 29.47 998 30 48 N/A
9:50 pm 21:50 Partly Cloudy 36 2 28 -2 75 75 SSE 9 15 29.44 997 30 48 N/A
10:20 pm 22:20 Partly Cloudy 36 2 28 -2 75 75 SSE 10 17 29.41 996 30 48 N/A
10:50 pm 22:50 Mostly Cloudy 36 2 28 -2 75 75 SSE 10 17 29.41 996 30 48 N/A
11:20 pm 23:20 Mostly Cloudy 36 2 28 -2 75 75 SSE 9 15 29.39 995 30 48 N/A
11:50 pm 23:50 Cloudy 36 2 28 -2 75 75 SSE 9 15 29.36 994 30 48 N/A

Powered by AerisWeather